Location: *
(58.4167°N, 22.5000°E)
Time: 13:45:56
(UTC+00:00)

SL-24 R/B - RUBIN 2 - Pass Details

Date: 22 September 2019
Orbit: 580 x 1015 km, 64.6° (Epoch: 21 October)

Event Time Altitude Azimuth Distance (km) Brightness Sun altitude
Exits shadow 23:16:07 60° 16° (NNE) 906 4.5 -30.5°
Drops below altitude 10° 23:21:10 10° 56° (NE) 2,504 7.2 -30.3°
Sets 23:23:50 0° 59° (ENE) 3,513 8.1 -30.2°
